Big Bear Station Historical Data
Daily Summary for September 28, 2017 Units:  English    Metric   Both
« Previous Day
Next Day »
Daily Weekly Monthly Yearly Custom
  High: Low: Average:
Temperature: 70.0 °F 35.8 °F 50.5 °F
Dew Point: 38.0 °F 24.9 °F 29.7 °F
Humidity: 87 % 20 % 51 %
Wind Speed: 6.8 mph 0.0 mph 1.1 mph
Wind Gust: -999.0 mph - -
Wind:- - WSW
Pressure: 30.21 in 30.16 in -
Precipitation: 0.00 in    
Historical Graphs
 
 
Tabular Data for September 28, 2017
Time Temperature Dew Point Pressure Wind Wind Speed Wind Gust Humidity Rainfall Rate (Hourly)
00:02 41.0 °F 26.9 °F 30.18 in Calm   -999.0 mph 57 % 0 in
00:17 40.3 °F 29.5 °F 30.18 in Calm   -999.0 mph 65 % 0 in
00:33 40.3 °F 29.8 °F 30.18 in Calm   -999.0 mph 66 % 0 in
00:48 39.9 °F 26.3 °F 30.18 in Calm   -999.0 mph 58 % 0 in
01:03 39.7 °F 29.3 °F 30.18 in Calm   -999.0 mph 66 % 0 in
01:18 39.6 °F 30.3 °F 30.18 in Calm   -999.0 mph 69 % 0 in
01:33 39.4 °F 30.8 °F 30.19 in Calm   -999.0 mph 71 % 0 in
01:49 39.2 °F 30.6 °F 30.18 in Calm   -999.0 mph 71 % 0 in
02:04 38.8 °F 30.9 °F 30.18 in Calm   -999.0 mph 73 % 0 in
02:19 38.3 °F 31.1 °F 30.18 in Calm   -999.0 mph 75 % 0 in
02:34 38.7 °F 31.5 °F 30.18 in Calm   -999.0 mph 75 % 0 in
02:49 38.3 °F 31.4 °F 30.18 in Calm   -999.0 mph 76 % 0 in
03:05 37.8 °F 30.3 °F 30.17 in Calm   -999.0 mph 74 % 0 in
03:20 37.8 °F 30.6 °F 30.17 in Calm   -999.0 mph 75 % 0 in
03:35 37.6 °F 31.4 °F 30.17 in Calm   -999.0 mph 78 % 0 in
03:50 37.2 °F 31.0 °F 30.17 in Calm   -999.0 mph 78 % 0 in
04:05 37.8 °F 31.6 °F 30.17 in Calm   -999.0 mph 78 % 0 in
04:21 37.0 °F 31.1 °F 30.17 in Calm   -999.0 mph 79 % 0 in
04:36 36.7 °F 29.8 °F 30.17 in Calm   -999.0 mph 76 % 0 in
04:51 36.5 °F 29.7 °F 30.17 in Calm   -999.0 mph 76 % 0 in
05:06 36.7 °F 30.8 °F 30.18 in Calm   -999.0 mph 79 % 0 in
05:22 36.9 °F 31.9 °F 30.18 in Calm   -999.0 mph 82 % 0 in
05:37 36.9 °F 32.2 °F 30.18 in Calm   -999.0 mph 83 % 0 in
05:52 36.7 °F 32.0 °F 30.18 in Calm   -999.0 mph 83 % 0 in
06:07 36.5 °F 32.1 °F 30.19 in Calm   -999.0 mph 84 % 0 in
06:22 36.1 °F 32.0 °F 30.19 in Calm   -999.0 mph 85 % 0 in
06:38 36.0 °F 32.2 °F 30.19 in Calm   -999.0 mph 86 % 0 in
06:53 35.8 °F 32.0 °F 30.19 in Calm   -999.0 mph 86 % 0 in
07:08 36.0 °F 32.5 °F 30.20 in Calm   -999.0 mph 87 % 0 in
07:23 36.1 °F 32.6 °F 30.20 in Calm   -999.0 mph 87 % 0 in
07:38 36.5 °F 32.7 °F 30.20 in Calm   -999.0 mph 86 % 0 in
07:54 37.0 °F 32.9 °F 30.20 in Calm   -999.0 mph 85 % 0 in
08:09 40.1 °F 34.1 °F 30.21 in Calm   -999.0 mph 79 % 0 in
08:24 40.6 °F 34.0 °F 30.21 in Calm   -999.0 mph 77 % 0 in
08:39 42.1 °F 34.4 °F 30.21 in Calm   -999.0 mph 74 % 0 in
08:54 43.0 °F 37.3 °F 30.21 in Calm   -999.0 mph 80 % 0 in
09:10 44.4 °F 38.0 °F 30.21 in Calm   -999.0 mph 78 % 0 in
09:25 47.3 °F 38.0 °F 30.21 in East 1.1 mph -999.0 mph 70 % 0 in
09:40 50.2 °F 33.2 °F 30.21 in Calm   -999.0 mph 52 % 0 in
09:56 54.5 °F 28.7 °F 30.21 in Calm   -999.0 mph 37 % 0 in
10:11 56.8 °F 28.7 °F 30.21 in ESE 1.1 mph -999.0 mph 34 % 0 in
10:27 59.0 °F 29.2 °F 30.21 in NW 1.7 mph -999.0 mph 32 % 0 in
10:42 62.4 °F 28.9 °F 30.21 in SSE 1.1 mph -999.0 mph 28 % 0 in
10:57 63.7 °F 28.2 °F 30.21 in Calm   -999.0 mph 26 % 0 in
11:13 64.6 °F 28.9 °F 30.21 in WNW 4.2 mph -999.0 mph 26 % 0 in
11:28 64.9 °F 28.2 °F 30.21 in NNW 3.7 mph -999.0 mph 25 % 0 in
11:43 66.4 °F 28.5 °F 30.20 in South 1.7 mph -999.0 mph 24 % 0 in
11:58 66.9 °F 28.9 °F 30.20 in NW 6.8 mph -999.0 mph 24 % 0 in
12:13 66.9 °F 27.9 °F 30.20 in NNW 3.7 mph -999.0 mph 23 % 0 in
12:29 68.4 °F 29.1 °F 30.19 in North 5.3 mph -999.0 mph 23 % 0 in
12:44 68.4 °F 28.1 °F 30.19 in WNW 2.7 mph -999.0 mph 22 % 0 in
12:59 68.4 °F 29.1 °F 30.18 in West 2.7 mph -999.0 mph 23 % 0 in
13:14 69.4 °F 28.9 °F 30.18 in NNW 4.7 mph -999.0 mph 22 % 0 in
13:30 68.7 °F 27.2 °F 30.18 in East 2.7 mph -999.0 mph 21 % 0 in
13:45 68.9 °F 28.5 °F 30.17 in ENE 2.7 mph -999.0 mph 22 % 0 in
14:00 70.0 °F 27.1 °F 30.17 in ESE 2.2 mph -999.0 mph 20 % 0 in
14:16 68.9 °F 29.6 °F 30.17 in East 2.7 mph -999.0 mph 23 % 0 in
14:31 68.5 °F 31.3 °F 30.16 in NNW 4.2 mph -999.0 mph 25 % 0 in
14:47 68.4 °F 30.2 °F 30.16 in WNW 5.3 mph -999.0 mph 24 % 0 in
15:02 69.1 °F 29.7 °F 30.16 in WNW 5.3 mph -999.0 mph 23 % 0 in
15:17 68.5 °F 32.3 °F 30.16 in NW 2.7 mph -999.0 mph 26 % 0 in
15:33 67.1 °F 30.1 °F 30.16 in WNW 5.8 mph -999.0 mph 25 % 0 in
15:48 66.4 °F 29.5 °F 30.16 in NW 4.2 mph -999.0 mph 25 % 0 in
16:03 66.6 °F 29.7 °F 30.16 in ENE 2.7 mph -999.0 mph 25 % 0 in
16:34 66.0 °F 28.2 °F 30.16 in Calm   -999.0 mph 24 % 0 in
16:49 65.8 °F 29.0 °F 30.16 in NW 4.2 mph -999.0 mph 25 % 0 in
17:04 66.9 °F 30.9 °F 30.16 in NW 3.2 mph -999.0 mph 26 % 0 in
17:19 66.2 °F 29.3 °F 30.16 in NW 3.2 mph -999.0 mph 25 % 0 in
17:35 63.7 °F 28.2 °F 30.16 in NW 2.7 mph -999.0 mph 26 % 0 in
17:50 62.6 °F 30.7 °F 30.16 in NNW 3.7 mph -999.0 mph 30 % 0 in
18:05 61.7 °F 29.9 °F 30.16 in NW 2.7 mph -999.0 mph 30 % 0 in
18:20 60.8 °F 31.5 °F 30.17 in NNW 1.7 mph -999.0 mph 33 % 0 in
18:35 59.0 °F 29.2 °F 30.16 in Calm   -999.0 mph 32 % 0 in
18:51 57.2 °F 27.6 °F 30.17 in Calm   -999.0 mph 32 % 0 in
19:06 55.6 °F 26.9 °F 30.17 in Calm   -999.0 mph 33 % 0 in
19:21 54.7 °F 26.9 °F 30.17 in Calm   -999.0 mph 34 % 0 in
19:36 53.6 °F 26.6 °F 30.17 in Calm   -999.0 mph 35 % 0 in
19:52 52.3 °F 26.8 °F 30.17 in Calm   -999.0 mph 37 % 0 in
20:07 51.1 °F 26.4 °F 30.18 in Calm   -999.0 mph 38 % 0 in
20:22 50.2 °F 26.8 °F 30.18 in Calm   -999.0 mph 40 % 0 in
20:37 49.3 °F 27.7 °F 30.18 in Calm   -999.0 mph 43 % 0 in
20:52 48.7 °F 28.3 °F 30.19 in Calm   -999.0 mph 45 % 0 in
21:08 47.8 °F 26.9 °F 30.19 in Calm   -999.0 mph 44 % 0 in
21:23 47.3 °F 28.6 °F 30.19 in Calm   -999.0 mph 48 % 0 in
21:38 46.4 °F 28.8 °F 30.19 in Calm   -999.0 mph 50 % 0 in
21:53 45.9 °F 26.3 °F 30.19 in Calm   -999.0 mph 46 % 0 in
22:08 45.0 °F 24.9 °F 30.20 in Calm   -999.0 mph 45 % 0 in
22:24 44.8 °F 25.3 °F 30.20 in Calm   -999.0 mph 46 % 0 in
22:39 44.1 °F 26.6 °F 30.20 in Calm   -999.0 mph 50 % 0 in
22:54 43.5 °F 25.6 °F 30.20 in Calm   -999.0 mph 49 % 0 in
23:09 43.2 °F 26.3 °F 30.20 in Calm   -999.0 mph 51 % 0 in
23:24 42.8 °F 25.4 °F 30.20 in Calm   -999.0 mph 50 % 0 in
23:40 42.4 °F 26.9 °F 30.20 in Calm   -999.0 mph 54 % 0 in
23:55 41.9 °F 25.5 °F 30.20 in Calm   -999.0 mph 52 % 0 in
Big Bear CA Weather
Compliments of Weather Underground - 1.5 mb